Regional Weather Roundup
Issued by NWS Sioux Falls, SD

Home | Current Version | Previous Version | Text Only | Print | Product List | Glossary On
Versions: 1 2 3 4 5 6 7 8 9 10 11 12 13 14 15 16 17 18 19 20 21 22 23 24 25 26 27 28 29 30 31 32 33 34 35 36 37 38 39 40 41 42 43 44 45 46 47 48 49 50
000
ASUS43 KFSD 242102
RWRFSD

WEATHER ROUNDUP FOR SE SOUTH DAKOTA/SW MINNESOTA/NW IOWA
NATIONAL WEATHER SERVICE SIOUX FALLS SD
400 PM CDT SUN SEP 24 2017

NOTE: "FAIR" INDICATES FEW OR NO CLOUDS BELOW 12,000 FEET WITH NO
SIGNIFICANT WEATHER AND OR OBSTRUCTIONS TO VISIBILITY.


SDZ038>040-050-052>070-242200-
SOUTHEAST SOUTH DAKOTA

CITY           SKY/WX    TMP DP  RH WIND       PRES   REMARKS
BROOKINGS      CLOUDY    61  58  90 W13       29.91F
CHAMBERLAIN    CLOUDY    57  53  87 NW14      29.99R
HURON          LGT RAIN  56  54  93 NW9       29.95F
MADISON        CLOUDY    59  59 100 W15       29.93S
MITCHELL       LGT RAIN  57  55  93 N7        29.95S
SIOUX FALLS    PTSUNNY   70  61  73 W12       29.90S
WINNER         CLOUDY    56  50  80 NW13      30.00S
YANKTON        LGT RAIN  61  56  83 NW15      29.93S
$$

MNZ071-072-080-081-089-090-097-098-242200-
SOUTHWEST MINNESOTA

CITY           SKY/WX    TMP DP  RH WIND       PRES   REMARKS
FAIRMONT       CLOUDY    87  62  43 S20G26    29.86F
JACKSON        MOSUNNY   86  59  39 SW15G23   29.87F
LUVERNE        CLOUDY    68  63  83 W10       29.90R
MARSHALL       MOSUNNY   71  65  81 W14       29.86R
MONTEVIDEO     LGT RAIN  70  64  83 NW10      29.86R
PIPESTONE      CLOUDY    68  63  83 NW9       29.90F
REDWOOD FALLS  MOSUNNY   86  62  44 SW17G28   29.81F
TRACY          CLOUDY    76  68  75 W10G17    29.88R
WORTHINGTON    LGT RAIN  72  64  76 SW8G24    29.90R
$$

IAZ001>003-012>014-020>022-031-032-NEZ013-014-SDZ071-242200-
NORTHWEST IOWA

CITY           SKY/WX    TMP DP  RH WIND       PRES   REMARKS
CHEROKEE       PTSUNNY   80  65  59 S15       29.87S
DENISON        PTSUNNY   84  64  51 S12G17    29.90S
ESTHERVILLE    MOSUNNY   86  61  42 S16G24    29.86F
LE MARS        CLOUDY    75  68  78 W6        29.88S
ORANGE CITY    PTSUNNY   73  70  88 CALM      29.90R
SHELDON        PTSUNNY   73  68  83 W8        29.89R
SIOUX CITY     CLOUDY    76  69  79 NW14      29.86S
SPENCER        CLOUDY    86  61  42 S13       29.87F
STORM LAKE     MOSUNNY   84  63  48 SW20G30   29.89R
$$

ABBREVIATIONS USED IN REMARKS
   TC - TEMPERATURE IN CELSIUS
  WCI - WIND CHILL INDEX
   HX - HEAT INDEX
  VSB - VISIBILITY





USA.gov is the U.S. government's official web portal to all federal, state and local government web resources and services.